loading
|

WESTFORD NEEDLES, 2997

Orbit data source: Space-Track

WESTFORD NEEDLES, 2997 is space debris originally from a launch on Thu, 09 May 1963 UTC launched from the Air Force Western Test Range (AFWTR). Debris objects in space refer to the collection of defunct objects orbiting the Earth. Examples of debris include non-operational satellites, rocket bodies, and fragments generated from explosions, collisions, or faulty payload assembly.

Loading next visibility...
Loading greatness...
WESTFORD NEEDLES details
Identifier
2997, 1963-014AU
Orbit
Active
Last TLE update18 hours ago
Origin
Flag of USUSAF SSD (US)
ManufacturerUnknown
MissionSpacecraft
Bus & MotorUnknown bus, Unknown motor
MassUnknown
Launch date (UTC)
1963-05-09 (61 years ago)
Launch vehicleUnknown
Launch site
Air Force Western Test Range (AFWTR)
Object type
Payload
Rocket body
Debris
Shape & HBRUnknown
Radar Cross SectionMedium (>0.1 m² and <1 m²)

Expand to show TLE details & history

TLE from 18 hours ago
0 WESTFORD NEEDLES
1 02997U 63014AU  24278.27162005 -.00001200  00000-0 -32180+0 0  9995
2 02997  86.8146 239.8467 0916942 225.5690 126.6514  8.77839310261988
Epoch: 2024-10-04T06:31Z
Definitive object data (Epoch: 2024-10-04T06:31:07.972Z)
Latitude
Longitude128.61881°
Altitude4,143.314 km
Speed5.969 km/s
True Right ascension15h 59m 23s
True Declination0° 00' 00"
Sunlit
Object was in daylight at TLE epoch
Predictive object data (real-time)
Latitude-64.28646°
Longitude-44.86508°
Altitude2,706.438 km
Speed6.909 km/s
Apparent Right ascension05h 43m 11s
Apparent Declination-55° 23' 10"
Sunlit
Object is in daylight
Predictive observer data (real-time)
Local Sidereal Time18:45:25
Azimuth151.455° SSE
Elevation-71.407°
Doppler factor1
Orbital elements
Apogee4,456.035 km
Perigee2,636.055 km
Semi-major axis9,924.182 km
Eccentricity0.0916942
Inclination86.8146°
RAAN239.8467°
Arg. of periapsis225.569°
True anomaly134.51567°
Mean anomaly126.6514°
Eccentric anomaly130.6381°
Mean motion2.19534 °/min
BSTAR-0.3218
Period163.98 mins
No data available

WESTFORD NEEDLES Visibility forecast

Observer location: 39.9160978°, -105.1181434

WESTFORD NEEDLES is not visible in the next 10 days
Span
Click to sort rows by Start time (UTC) header in descending order
Start Az.
Max El. time (UTC)
Max El. Az.
Max El.
End time (UTC)
End Az.